Location: Frohnstetten
(48.1443°N, 9.0920°E)
Time: 05:33:42
(UTC+00:00)

Daily predictions for brighter satellites

Satellite Brightness Start Highest point End
(mag) Time Altitude Azimuth Time Altitude Azimuth Time Altitude Azimuth
ATLAS 2AS CENTAUR R/B 3.1 00:09:45 41° W 00:11:52 56° NW 00:18:34 10° NE
IDEFIX/ARIANE 42P 4.0 00:12:03 10° NE 00:16:21 26° E 00:16:41 26° E
Meteor 1-5 Rocket 4.2 00:16:05 10° NNW 00:20:57 69° NW 00:20:57 69° NW
Cosmos 1953 Rocket 4.4 00:18:45 10° N 00:22:18 49° NNE 00:22:18 49° NNE
Cosmos 1980 Rocket 2.7 00:19:52 10° NW 00:24:20 47° WNW 00:24:20 47° WNW
USA 234 4.3 00:20:32 10° E 00:26:41 45° NNE 00:32:50 10° WNW
Cosmos 44 Rocket 4.1 00:29:47 46° E 00:29:47 46° E 00:33:58 10° NE
COSMOS 2406 3.9 00:32:29 41° ESE 00:32:42 41° ESE 00:38:04 10° NE
Meteor 2-10 4.3 00:30:58 10° NNW 00:36:02 64° WNW 00:36:02 64° WNW
Cosmos 2369 3.6 00:31:03 10° NNW 00:36:37 81° W 00:36:37 81° W
Cosmos 1634 Rocket 4.0 00:35:56 59° SE 00:36:48 67° E 00:42:55 10° NNE
Cosmos 724 4.2 00:44:49 71° SSE 00:45:13 74° ESE 00:51:10 10° NE
Cosmos 2084 4.3 00:46:23 44° N 00:46:23 44° N 00:49:42 10° NE
Cosmos 1627 Rocket 4.4 00:41:37 10° NNW 00:47:52 72° W 00:48:29 67° SW
Cosmos 1607 3.9 00:47:22 61° SSE 00:47:54 64° ESE 00:54:05 10° NE
Cosmos-2242 3.5 00:52:12 56° NNE 00:52:12 56° NNE 00:55:36 10° NNE
Cosmos 2360 Rocket 3.6 00:47:09 10° NNW 00:52:23 36° NE 00:57:34 10° ESE
Cosmos 2333 Rocket 2.8 00:48:00 10° NNW 00:53:36 55° ENE 00:57:05 23° SE
USA 281 3.3 00:51:27 31° SE 00:54:53 75° ENE 01:01:28 10° NNW
FENGYUN 3A 4.5 00:50:27 10° NNE 00:55:35 42° E 00:56:43 37° SE
Cosmos 2082 Rocket 2.2 00:59:24 62° W 01:00:02 68° WNW 01:05:46 10° NNE
Meteor 2-2 Rocket 4.1 01:02:52 69° S 01:03:35 84° E 01:09:15 10° NNE
Cosmos 2279 Rocket 4.0 01:03:59 54° SSE 01:05:28 76° E 01:11:44 10° NNE
Cosmos 2278 4.1 01:01:43 10° NNW 01:07:25 63° ENE 01:11:11 22° SE
Cosmos 2322 Rocket 3.1 01:02:23 10° NNW 01:07:50 47° NE 01:13:16 10° SE
Cosmos 2221 3.6 01:07:40 34° E 01:07:57 34° E 01:11:42 10° NNE
Cosmos 1486 Rocket 4.1 01:03:00 10° NNW 01:08:13 73° ENE 01:09:36 49° SE
NPP 4.0 01:03:30 10° NNE 01:08:48 55° E 01:09:56 46° SE
Resurs 1-4 Rocket 4.0 01:05:18 10° NE 01:09:24 22° E 01:12:17 15° SE
NOSS 3-3 (A) 3.6 01:14:12 60° SSE 01:14:51 65° SE 01:20:55 10° NE
ACS3 Solar Sail 1.9 01:11:25 10° N 01:17:20 58° WNW 01:18:33 49° WSW
Cosmos 1777 Rocket 4.0 01:13:35 10° NNW 01:18:53 78° ENE 01:20:41 42° SE
Cosmos 2219 Rocket 3.6 01:16:30 10° NNW 01:21:43 37° NE 01:26:56 10° ESE
CZ-4C R/B 2.2 01:22:06 46° WNW 01:22:47 50° NW 01:28:13 10° NE
SL-16 R/B 2.1 01:17:17 10° NNW 01:22:59 84° WSW 01:24:52 44° SSE
H-2A R/B 4.2 01:20:15 10° NE 01:24:02 20° E 01:27:51 10° SE
GP-B 4.0 01:20:01 10° NNW 01:23:25 36° WNW 01:23:25 36° WNW
Cosmos 1271 Rocket 3.5 01:27:38 40° E 01:27:38 40° E 01:30:40 10° NNE
Meteor 1-14 Rocket 4.2 01:24:26 10° N 01:30:14 81° ENE 01:32:37 36° SSE
SL-4 R/B 2.6 01:31:34 42° ESE 01:31:34 42° ESE 01:34:12 10° ESE
ATLAS 3B R/B 3.9 01:24:20 10° NW 01:29:24 26° W 01:29:24 26° W
NOSS 3-3 (C) 3.7 01:30:27 54° S 01:31:35 71° SE 01:37:46 10° NE
Cosmos 2058 Rocket 3.5 01:32:04 47° WNW 01:32:04 47° WNW 01:36:09 10° N
USA 267 3.7 01:25:33 10° ENE 01:31:54 49° SE 01:34:01 37° S
Cosmos 2266 Rocket 4.0 01:29:40 10° N 01:35:50 79° E 01:39:09 29° SSE
Gbstr 26 Del rocket 2.7 01:37:23 71° ENE 01:37:23 71° ENE 01:40:48 10° ESE
Cosmos 1470 3.2 01:33:49 10° N 01:36:15 45° N 01:36:15 45° N
USA 290 4.2 01:37:48 22° E 01:37:48 22° E 01:40:15 10° NE
Cosmos 1536 4.3 01:45:04 10° NNW 01:46:48 22° NW 01:46:48 22° NW
Cosmos 2333 4.4 01:42:46 10° NNW 01:48:26 71° ENE 01:54:08 10° SE
DMSP B5D2-2 4.2 01:45:23 19° SSE 01:49:04 71° ENE 01:54:14 10° N
Cosmos 1812 Rocket 3.5 01:49:34 53° SSE 01:50:32 77° E 01:54:52 10° NNE
Meteor 2-6 Rocket 4.3 01:49:06 44° SW 01:50:50 65° WNW 01:56:43 10° N
NOSS 3-4 (A) 4.2 01:46:33 10° NW 01:53:07 65° NE 02:00:52 10° SE
NOSS 3-4 (C) 4.2 01:47:05 10° NW 01:53:40 65° NE 02:01:26 10° SE
ISS -1.2 01:56:14 12° SE 01:56:14 12° SE 01:57:27 10° ESE
IDEFIX/ARIANE 42P 2.9 01:51:04 10° N 01:56:02 48° WNW 01:57:22 39° WSW
Meteor 2-20 4.5 01:54:40 29° S 01:57:59 80° E 02:04:09 10° NNE
COSMOS 2441 4.2 01:53:20 10° NNE 01:58:09 89° WNW 01:59:44 43° SSW
Envisat 3.3 01:53:43 10° NNE 01:58:45 61° ESE 02:01:23 28° S
Aureole 1 Rocket 3.9 01:55:48 10° NNW 01:59:51 53° ENE 02:04:53 10° SE
Cosmos 2084 Rocket 3.4 01:59:13 10° NW 02:03:26 82° NE 02:07:41 10° SE
ATLAS 2AS CENTAUR R/B 4.5 01:58:44 10° WNW 02:04:14 25° NNW 02:09:42 10° NE
Iridium 4 Rocket 3.3 02:03:00 33° S 02:05:07 83° E 02:10:13 10° N
MOZ.5/SAFIR/RUBIN 5/SL-8 3.7 02:05:32 41° SSW 02:06:59 61° WSW 02:11:36 10° NNW
Meteor 1-27 Rocket 4.2 02:03:31 19° S 02:07:44 61° E 02:13:34 10° NNE
H-2A R/B 2.3 02:06:25 28° SSE 02:08:13 70° ENE 02:11:48 10° N
USA 234 3.3 02:02:45 10° ESE 02:09:18 80° NNE 02:15:51 10° NW
Cosmos 1975 3.0 02:07:24 10° NNW 02:10:36 42° W 02:10:36 42° W
Cosmos 990 Rocket 3.8 02:06:25 10° NNW 02:11:32 73° WSW 02:15:53 14° SSE
ADEOS II 2.9 02:07:12 10° NNE 02:12:17 48° E 02:16:28 15° S
Cosmos 1763 Rocket 3.5 02:13:16 35° SW 02:15:31 76° WNW 02:20:50 10° NNE
Cosmos 1238 Rocket 2.9 02:15:06 37° SE 02:15:45 46° E 02:18:39 10° NNE
ALOS 2.4 02:12:18 10° NNE 02:16:52 67° ESE 02:19:31 24° S
COSMOS 2406 4.0 02:14:30 26° W 02:17:01 39° NW 02:22:25 10° NNE
COSMOS 2428 4.3 02:15:27 10° NNW 02:20:44 37° NE 02:25:59 10° ESE
CZ-2D R/B 2.2 02:15:38 10° NNE 02:20:54 75° ESE 02:24:32 21° S
SL-16 R/B 3.9 02:15:08 10° SE 02:20:56 41° ENE 02:26:44 10° N
ADEOS Rocket 3.7 02:16:27 10° N 02:23:51 60° WNW 02:28:49 23° SW
Spot 2 4.3 02:23:10 10° SSE 02:27:57 84° WSW 02:32:57 10° NNW
Cosmos 1898 Rocket 4.1 02:24:31 10° NNW 02:29:38 58° ENE 02:34:42 10° SE
Cosmos 1354 Rocket 4.2 02:28:57 10° NNW 02:34:00 48° WSW 02:38:18 14° S
Cosmos 2360 Rocket 2.5 02:31:06 10° NW 02:36:29 45° WSW 02:41:50 10° S
Cosmos 2333 Rocket 3.1 02:32:51 10° NW 02:37:33 27° WSW 02:39:00 24° SW
SL-19 R/B 4.4 02:32:28 10° NNE 02:38:10 81° ESE 02:43:25 14° SSW
Alouette 2 Rocket 3.1 02:34:15 10° NNW 02:38:21 79° W 02:41:40 11° S
USA 305 3.9 02:38:24 11° NNW 02:38:41 11° NNW 02:39:18 10° N
USA 281 4.2 02:38:17 22° WSW 02:39:57 25° W 02:45:11 10° NW
EP 1 4.3 02:37:45 10° NW 02:40:21 80° NE 02:43:10 10° SE
Meteor 2-10 Rocket 3.9 02:38:52 10° N 02:43:57 64° ENE 02:49:11 10° SSE
Cosmos 540 Rocket 3.8 02:41:18 25° SW 02:44:06 50° WNW 02:49:07 10° NNE
Cosmos 2221 3.8 02:43:58 21° W 02:45:03 23° WNW 02:48:23 10° NNW
Cosmos 2082 Rocket 4.2 02:41:34 10° WNW 02:45:14 17° NW 02:48:55 10° N
H-2A R/B 3.7 02:42:10 10° NE 02:45:41 29° E 02:49:09 10° SSE
Cosmos 1553 Rocket 4.4 02:41:07 10° S 02:47:13 65° E 02:53:27 10° NNE
USA 276 3.0 02:50:08 17° ESE 02:50:08 17° ESE 02:50:42 10° ESE
Resurs 1-4 Rocket 2.2 02:44:19 10° N 02:49:32 59° WNW 02:53:19 19° SW
Cosmos 468 Rocket 4.0 02:46:38 20° SSW 02:50:20 75° WNW 02:55:39 10° NNE
Cosmos 2322 Rocket 2.9 02:46:44 10° NW 02:51:40 32° WSW 02:56:36 10° SSW
BREEZE-M DEB (TANK) 3.2 02:50:12 15° WNW 02:52:37 90° NW 03:01:13 10° ESE
DNEPR-1 R/B 4.3 02:49:33 10° NW 02:54:53 60° WSW 03:01:23 10° SSE
CZ-2C R/B 4.5 02:52:54 10° NE 02:56:56 26° E 03:00:51 10° SSE
Cosmos 1766 Rocket 3.7 02:53:17 10° NNW 02:57:30 50° W 03:01:39 10° S
Cosmos 1833 4.4 02:53:58 19° SW 02:58:02 61° WNW 03:03:42 10° NNE
ACS3 Solar Sail 3.8 02:56:17 10° NNW 02:58:32 12° NW 03:00:48 10° WNW
Cosmos 1271 Rocket 4.4 03:01:02 14° W 03:01:50 15° WNW 03:03:50 10° NNW
CRYOSAT 2 4.3 02:58:48 10° S 03:03:38 67° W 03:08:31 10° N
H-2A R/B 2.1 02:58:39 10° N 03:03:43 63° WNW 03:08:28 12° SSW
Cosmos 2219 Rocket 2.5 03:00:26 10° NW 03:05:43 43° WSW 03:11:00 10° S
Cosmos 2237 Rocket 4.0 03:00:31 10° NNW 03:05:45 36° NE 03:10:56 10° ESE
SL-16 R/B 3.8 03:03:22 10° WNW 03:06:09 14° W 03:06:38 14° WSW
SL-4 R/B 2.8 03:05:08 15° W 03:07:28 26° SW 03:10:39 10° SSE
Meteor 2-11 Rocket 4.5 03:02:14 10° NNW 03:08:20 66° W 03:14:23 10° S
SL-14 R/B 3.8 03:04:52 10° S 03:08:41 58° E 03:12:31 10° NNE
CZ-3 Stage 3 4.4 03:05:05 14° SW 03:11:32 33° SSE 03:33:04 10° ESE
USA 290 3.7 03:10:18 17° W 03:11:46 23° WNW 03:14:23 10° N
CZ-4C R/B 4.1 03:08:37 10° WNW 03:12:27 21° NNW 03:17:02 10° NE
ARGOS 3.3 03:09:20 10° NNE 03:14:45 79° ESE 03:20:07 10° SSW
USA 267 3.5 03:08:34 10° NE 03:15:05 68° NNW 03:21:22 11° WSW
Cosmos 1408 Rocket 4.1 03:11:25 10° N 03:15:41 61° ENE 03:19:53 10° SSE
Cosmos 1745 Rocket 4.4 03:10:16 10° N 03:16:26 67° ENE 03:22:30 10° SSE
METEOR-M 4.2 03:12:02 10° N 03:17:20 69° WNW 03:22:37 10° SSW
Gbstr 26 Del rocket 3.7 03:19:53 10° W 03:22:58 24° SW 03:26:04 10° SSE
Cosmos 2322 3.7 03:20:29 10° NNW 03:26:12 76° WSW 03:31:52 10° SSE
NOSS 3 (A) 4.3 03:29:27 10° NW 03:31:47 79° NE 03:34:48 10° SE
ISS -3.5 03:29:12 12° SW 03:32:13 63° SSE 03:35:35 10° ENE
Envisat 4.4 03:33:27 10° N 03:37:16 22° WNW 03:41:04 10° WSW
BREEZE-M DEB (TANK) 2.3 03:31:30 10° WSW 03:37:46 66° SSE 03:40:29 10° ENE
Meteor 2-4 Rocket 4.3 03:34:46 10° SW 03:39:39 35° WNW 03:44:33 10° N
Cosmos 1461 3.0 03:37:03 10° SW 03:40:42 50° NW 03:44:20 10° NNE
Meteor 1-28 Rocket 3.3 03:40:09 10° SSE 03:43:22 67° ENE 03:46:38 10° N
NOSS 3-4 (A) 4.4 03:37:37 10° NW 03:43:53 37° WSW 03:51:04 10° S
NOSS 3-4 (C) 4.4 03:38:08 10° NW 03:44:27 37° WSW 03:51:39 10° S
AQUA 4.0 03:40:19 10° N 03:44:55 56° WNW 03:49:28 10° SSW
NOSS 0 Rocket 3.9 03:40:20 10° NNW 03:46:33 78° WSW 03:52:41 10° SSE
Cosmos 1151 Rocket 2.9 03:44:18 10° SSW 03:48:30 74° W 03:52:45 10° N
PAYLOAD A 4.4 03:44:16 10° NNE 03:48:58 61° ESE 03:53:35 10° S
Cosmos 1500 Rocket 3.6 03:46:42 10° NNW 03:51:04 64° W 03:55:26 10° S
ADEOS II 3.2 03:47:11 10° N 03:51:35 28° WNW 03:55:58 10° WSW
USA 234 3.7 03:46:41 10° SSE 03:52:40 38° SW 03:58:42 10° WNW
CZ-3 R/B 4.1 03:51:16 10° WSW 04:09:03 27° SSW 04:16:18 10° SSE
